FW1555 Weather Reports


time (UTC)temp
C
wind
direction
speed
KPH
gust
KPH
rain 1hr
cm
rain 24hr
cm
rain mn
cm
humidity
%
barometer
mb
20260906111559 16 0 0.0 0.0 0.00 0.00 0.00 95 1014.1
20260906110056 16 0 0.0 0.0 0.00 0.00 0.00 95 1013.9
20260906104551 16 0 0.0 0.0 0.00 0.00 0.00 95 1013.7
20260906103052 16 0 0.0 0.0 0.00 0.00 0.00 95 1013.6
20260906101559 16 0 0.0 0.0 0.00 0.00 0.00 94 1013.3
20260906100055 17 0 0.0 0.0 0.00 0.00 0.00 94 1013.3
20260906094549 17 0 0.0 0.0 0.00 0.00 0.00 94 1013.2
20260906093057 17 0 0.0 0.0 0.00 0.00 0.00 95 1013.2
20260906091559 17 0 0.0 0.0 0.00 0.00 0.00 95 1013.0
20260906090058 17 0 0.0 0.0 0.00 0.00 0.00 94 1013.0
20260906084602 17 0 0.0 0.0 0.00 0.00 0.00 94 1012.8
20260906083059 17 0 0.0 0.0 0.00 0.00 0.00 95 1012.5
20260906081600 17 0 0.0 0.0 0.00 0.00 0.00 95 1012.4
20260906080059 17 0 0.0 0.0 0.00 0.00 0.00 94 1012.4
20260906074558 17 0 0.0 0.0 0.00 0.00 0.00 93 1012.4
20260906073103 17 0 0.0 0.0 0.00 0.00 0.00 93 1012.4
20260906071600 17 0 0.0 0.0 0.00 0.00 0.00 93 1012.3
20260906070057 17 0 0.0 0.0 0.00 0.00 0.00 93 1012.4
20260906064552 17 0 0.0 0.0 0.00 0.00 0.00 93 1012.4
20260906063100 17 0 0.0 0.0 0.00 0.00 0.00 93 1012.4
20260906061559 17 0 0.0 0.0 0.00 0.00 0.00 92 1012.6
20260906060107 17 0 0.0 0.0 0.00 0.00 0.00 93 1012.7
20260906054552 17 0 0.0 0.0 0.00 0.00 0.00 92 1012.7
20260906053050 17 0 0.0 0.0 0.00 0.00 0.00 91 1012.7
20260906051600 17 0 0.0 0.0 0.00 0.00 0.00 90 1012.7
20260906050059 18 0 0.0 0.0 0.00 0.00 0.00 89 1012.8
20260906044603 18 0 0.0 0.0 0.00 0.00 0.00 88 1012.7
20260906043059 18 0 0.0 0.0 0.00 0.00 0.00 87 1012.7
20260906041558 18 0 0.0 0.0 0.00 0.00 0.00 85 1012.5
20260906040056 19 0 0.0 0.0 0.00 0.00 0.00 85 1012.6
20260906034602 19 0 0.0 0.0 0.00 0.00 0.00 85 1012.6
20260906033105 19 0 0.0 0.0 0.00 0.00 0.00 84 1012.4
20260906031558 20 0 0.0 0.0 0.00 0.00 0.00 82 1012.4
20260906024600 20 0 0.0 0.0 0.00 0.00 0.00 81 1012.2
20260906023058 21 0 0.0 0.0 0.00 0.00 0.00 80 1012.2
20260906021600 21 0 0.0 0.0 0.00 0.00 0.00 80 1012.1
20260906020101 21 0 0.0 0.0 0.00 0.00 0.00 80 1012.1
20260906014605 20 0 0.0 1.6 0.00 0.00 0.00 80 1012.0
20260906013052 20 0 0.0 0.0 0.00 0.00 0.00 82 1012.0
20260906011603 20 0 0.0 0.0 0.00 0.00 0.00 84 1011.9
20260906010053 20 0 0.0 0.0 0.00 0.00 0.00 83 1011.8
20260906004557 20 0 0.0 0.0 0.00 0.00 0.00 83 1011.6
20260906003053 20 0 0.0 0.0 0.00 0.00 0.00 82 1011.5
20260906001556 21 0 0.0 0.0 0.00 0.00 0.00 81 1011.4
20260906000100 21 0 0.0 0.0 0.00 0.00 0.00 79 1011.2
20260905234556 22 0 0.0 0.0 0.00 0.00 0.00 77 1010.9
20260905233108 22 0 0.0 0.0 0.00 0.00 0.00 75 1010.9
20260905231600 22 0 0.0 0.0 0.00 0.00 0.00 74 1010.9
20260905224608 24 0 0.0 0.0 0.00 0.00 0.00 68 1010.4
20260905223106 25 0 0.0 0.0 0.00 0.00 0.00 67 1010.6
20260905221557 25 0 0.0 0.0 0.00 0.00 0.00 67 1010.5
20260905220054 25 0 0.0 1.6 0.00 0.00 0.00 64 1010.4
20260905214549 25 0 0.0 4.8 0.00 0.00 0.00 63 1010.2
20260905213100 26 0 0.0 3.2 0.00 0.00 0.00 60 1010.2
20260905211558 25 0 0.0 0.0 0.00 0.00 0.00 60 1010.2
20260905210055 26 0 0.0 6.4 0.00 0.00 0.00 56 1010.3
20260905204550 27 0 0.0 3.2 0.00 0.00 0.00 59 1010.1
20260905203101 26 0 0.0 3.2 0.00 0.00 0.00 58 1010.1
20260905201608 26 0 0.0 1.6 0.00 0.00 0.00 58 1010.0
20260905200052 26 32 0.0 3.2 0.00 0.00 0.00 56 1010.1
20260905194600 26 0 0.0 4.8 0.00 0.00 0.00 55 1010.1
20260905193057 26 0 0.0 4.8 0.00 0.00 0.00 59 1010.0
20260905191557 26 0 0.0 9.7 0.00 0.00 0.00 59 1010.2
20260905190110 25 0 0.0 6.4 0.00 0.00 0.00 61 1010.2
20260905184622 25 0 0.0 6.4 0.00 0.00 0.00 61 1010.5
20260905183059 25 304 0.0 4.8 0.00 0.00 0.00 60 1010.4
20260905181555 26 0 0.0 8.0 0.00 0.00 0.00 62 1010.5
20260905180053 25 0 0.0 9.7 0.00 0.00 0.00 60 1010.7
20260905174556 25 349 0.0 8.0 0.00 0.00 0.00 62 1010.5
20260905173058 25 0 0.0 8.0 0.00 0.00 0.00 61 1010.5
20260905171557 25 0 1.6 8.0 0.00 0.00 0.00 61 1010.7
20260905170120 25 0 0.0 8.0 0.00 0.00 0.00 63 1010.7
20260905164602 25 0 0.0 4.8 0.00 0.00 0.00 67 1010.8
20260905163102 25 0 0.0 8.0 0.00 0.00 0.00 66 1010.9
20260905161557 25 0 0.0 4.8 0.00 0.00 0.00 68 1010.8
20260905160052 25 0 0.0 8.0 0.00 0.00 0.00 66 1010.8
20260905154553 25 0 0.0 6.4 0.00 0.00 0.00 67 1010.7
20260905153058 24 0 0.0 4.8 0.00 0.00 0.00 69 1010.9
20260905151555 24 0 0.0 6.4 0.00 0.00 0.00 67 1010.8
20260905150050 23 0 0.0 4.8 0.00 0.00 0.00 72 1010.8
20260905144559 23 278 0.0 4.8 0.00 0.00 0.00 73 1010.8
20260905143100 23 0 0.0 4.8 0.00 0.00 0.00 73 1010.7
20260905141629 23 0 0.0 6.4 0.00 0.00 0.00 73 1010.7
20260905140101 23 0 0.0 3.2 0.00 0.00 0.00 74 1010.6
20260905134600 23 0 0.0 3.2 0.00 0.00 0.00 74 1010.6
20260905133057 23 0 0.0 3.2 0.00 0.00 0.00 75 1010.7
20260905131619 22 0 0.0 4.8 0.00 0.00 0.00 76 1010.7
20260905130100 22 0 0.0 0.0 0.00 0.00 0.00 78 1010.8
20260905124601 22 0 0.0 0.0 0.00 0.00 0.00 80 1010.9
20260905123108 21 0 0.0 0.0 0.00 0.00 0.00 85 1011.1
20260905121603 18 0 0.0 0.0 0.00 0.00 0.00 91 1011.1
20260905120100 17 0 0.0 0.0 0.00 0.00 0.00 92 1011.1
20260905114557 17 0 0.0 0.0 0.00 0.00 0.00 94 1011.1
20260905113101 16 0 0.0 0.0 0.00 0.00 0.00 94 1010.9